Regional Weather Roundup
Issued by NWS

Home | Current Version | Previous Version | Text Only | Print | Product List | Glossary Off
Versions: 1 2 3 4 5 6 7 8 9 10 11 12 13 14 15 16 17 18 19 20 21 22 23 24 25 26 27 28 29 30 31 32 33 34 35 36 37 38 39 40 41 42 43 44 45 46 47 48 49 50

784
ASUS43 KMKX 022111
RWRWI

WISCONSIN REGIONAL WEATHER ROUNDUP
NATIONAL WEATHER SERVICE MILWAUKEE/SULLIVAN WI
300 PM CST FRI DEC 02 2016

NOTE: "FAIR" INDICATES FEW OR NO CLOUDS BELOW 12,000 FEET WITH NO
SIGNIFICANT WEATHER AND/OR OBSTRUCTIONS TO VISIBILITY.

WIZ001-002-006>008-014>016-023>028-022200-
NORTHWEST WISCONSIN

CITY           SKY/WX    TMP DP  RH WIND       PRES   REMARKS
SUPERIOR ARPT  CLOUDY    31  23  74 NW3       30.24R
ASHLAND        CLOUDY    31  25  78 W12G17    30.22R WCI  22
HAYWARD        CLOUDY    29  22  75 W3        30.21R
SIREN          CLOUDY    30  23  74 W6        30.23S WCI  24
CUMBERLAND     CLOUDY    30  23  74 NW7       30.21S WCI  23
RICE LAKE      CLOUDY    31  24  74 N5        30.23R WCI  26
CHETEK         CLOUDY    31  24  75 CALM      30.22S
LADYSMITH      CLOUDY    31  25  76 NW6       30.22R WCI  26
EAU CLAIRE     CLOUDY    32  23  69 NW8       30.22R WCI  25
MENOMONIE      CLOUDY    33  25  73 NW7       30.23S WCI  26
NEW RICHMOND   CLOUDY    31  25  77 NW7       30.23S WCI  24
OSCEOLA        NOT AVBL
$$

WIZ003>005-009-010-017-018-022200-
NORTH CENTRAL WISCONSIN

CITY           SKY/WX    TMP DP  RH WIND       PRES   REMARKS
MANITOWISH WTR CLOUDY    29  28  97 W5        30.16R WCI  24
ARBOR VITAE    CLOUDY    32  28  84 CALM      30.16R
WOODRUFF       CLOUDY    32  28  84 CALM      30.16R
RHINELANDER    CLOUDY    32  26  78 W7        30.16R WCI  26
EAGLE RIVER    CLOUDY    30  29  96 NW6       30.15R WCI  24
LAND O LAKES   CLOUDY    31  28  91 CALM      30.16R
PHILLIPS       CLOUDY    29  25  83 NW3       30.17R
TOMAHAWK       CLOUDY    30  24  79 W5        30.18R WCI  25
MEDFORD        CLOUDY    30  23  77 NW5       30.17S WCI  25
MERRILL        CLOUDY    32  26  77 NW5       30.19R WCI  27
$$

WIZ029-030-035-036-043>047-022200-
CENTRAL WISCONSIN

CITY           SKY/WX    TMP DP  RH WIND       PRES   REMARKS
WAUSAU         CLOUDY    32  24  72 NW8       30.17R WCI  25
MOSINEE        NOT AVBL
MARSHFIELD     CLOUDY    30  22  72 NW12      30.19R WCI  20
STEVENS POINT  CLOUDY    30  22  72 NW7       30.20R WCI  23
WAUPACA        CLOUDY    35  25  67 NW8       30.21R WCI  28
WAUTOMA        CLOUDY    33  23  66 NW8       30.22R WCI  26
WISC RAPIDS    CLOUDY    32  23  69 NW9       30.22R WCI  24
CAMP DOUGLAS   CLOUDY    32  23  69 NW9       30.22R WCI  24
$$

WIZ011>013-019>022-031-037>040-048>050-022200-
NORTHEAST WISCONSIN

CITY           SKY/WX    TMP DP  RH WIND       PRES   REMARKS
ANTIGO         CLOUDY    31  26  80 W8        30.17R WCI  24
SHAWANO        CLOUDY    37  27  68 W7        30.19R WCI  31
OCONTO         CLOUDY    37  28  70 W6        30.17R WCI  32
STURGEON BAY   CLOUDY    36  28  73 W8        30.17R WCI  30
GREEN BAY      CLOUDY    37  29  72 NW12      30.18R WCI  29
MANITOWOC      CLOUDY    35  26  69 W12       30.19R WCI  27
APPLETON       CLOUDY    34  23  64 W10       30.17R WCI  26
CLINTONVILLE   CLOUDY    34  25  69 NW6       30.19R WCI  29
OSHKOSH        CLOUDY    33  24  69 W10       30.19R WCI  25
$$

WIZ032>034-041-042-053>061-022200-
SOUTHWEST WISCONSIN

CITY           SKY/WX    TMP DP  RH WIND       PRES   REMARKS
LA CROSSE      CLOUDY    35  23  61 NW6       30.25R WCI  30
SPARTA         CLOUDY    32  24  71 W8        30.24S WCI  25
VIROQUA        CLOUDY    31  24  76 W6        30.22R WCI  25
BOSCOBEL       CLOUDY    35  23  61 NW5       30.25R WCI  31
PRAIRIE DU CHI CLOUDY    33  22  64 NW9       30.26R WCI  26
PLATTEVILLE    CLOUDY    33  26  75 NW9       30.24R WCI  25
$$

WIZ056-057-062-063-064-067-068-022200-
SOUTH CENTRAL WISCONSIN

CITY           SKY/WX    TMP DP  RH WIND       PRES   REMARKS
REEDSBURG      CLOUDY    32  23  70 NW8       30.22R WCI  25
BARABOO/DELLS  CLOUDY    32  23  69 W6        30.22R WCI  26
LONE ROCK      CLOUDY    34  23  64 NW10      30.24R WCI  26
MINERAL POINT  CLOUDY    34  28  80 NW8       30.22R WCI  27
MADISON        CLOUDY    32  23  69 NW6       30.22R WCI  26
MIDDLETON      CLOUDY    34  25  71 NW7       30.23R WCI  28
WATERTOWN      CLOUDY    33  25  70 N7        30.21R WCI  27
MONROE         CLOUDY    34  25  69 W6        30.21R WCI  29
JANESVILLE     CLOUDY    36  25  64 NW8       30.21R WCI  29
$$

WIZ051-052-058>065-066-070>072-022200-
SOUTHEAST WISCONSIN

CITY           SKY/WX    TMP DP  RH WIND       PRES   REMARKS
MILWAUKEE      CLOUDY    36  23  59 NW10      30.21R WCI  28
WAUKESHA       CLOUDY    32  23  69 W8        30.21R WCI  25
MILWAUKEE/TIMM CLOUDY    34  21  60 NW9       30.22R WCI  26
RACINE         CLOUDY    35  23  61 N9        30.23R WCI  28
BURLINGTON     CLOUDY    33  24  69 NW6       30.22R WCI  28
KENOSHA        CLOUDY    35  24  64 NW9       30.22R WCI  28
FOND DU LAC    CLOUDY    34  23  64 NW9       30.20R WCI  27
SHEBOYGAN      CLOUDY    34  25  69 NW9       30.19R WCI  27
WEST BEND      CLOUDY    32  27  80 NW7       30.20R WCI  26
JUNEAU         CLOUDY    32  24  72 NW7       30.22R WCI  26
$$

LSZ147-162-022200-
LAKE SUPERIOR

STATION/POSITION TIME  TEMP    WIND        PRES    WAVE
                       AIR SEA DIR/SP/G            HT/PER
                 (UTC) (F)     (DEG/KT/KT) (MB)    (FT/S)
DEVILS ISLAND    2100   33     240/ 12/ 15 1023.6R
PORT WING        2030   32     260/  7/  9 1023.4R
SAXON HARBOR     2030   33     290/  5/  7 1022.7R
$$

LMZ867-665-643>646-022200-
LAKE MICHIGAN

STATION/POSITION TIME  TEMP    WIND        PRES    WAVE
                       AIR SEA DIR/SP/G            HT/PER
                 (UTC) (F)     (DEG/KT/KT) (MB)    (FT/S)
CHAMBERS ISLAND  2040   37     240/  5/  9 1020.7R
NORTHPORT PIER   2040   37     300/  8/ 14 1020.7R
SISTER BAY       2008   37     310/ 15/ 17   N/A
ALGOMA LAKESHORE 2051          310/  9/ 13   N/A
KEWAUNEE LAKESHO 2048   36     290/  6/  9 1021.0R
SHEBOYGAN LAKESH 2100   35     300/  7/ 10 1023.0R
PORT WASHINGTON  2040   35     310/  5/ 10 1023.7R
MILWAUKEE LAKESH 2050   35     290/  7/  8   N/A
S MID LAKE BUOY  2050   37 49  310/ 10/ 14 1022.9R   3/ 5
KENOSHA   LAKESH 2100   35     300/  8/ 11 1023.4
$$

TC  - TEMPERATURE IN CELSIUS
VSB - VISIBILITY IN STATUTE MILES
WCI - WIND CHILL INDEX
HX  - HEAT INDEX





USA.gov is the U.S. government's official web portal to all federal, state and local government web resources and services.